Wetterdaten: Freitag, 01.06.2007
Datum Zeit Temp. A. Feuchte A. Luftdruck Regen Wind Richtung Richtung Sonnenschein UV Solar Windben
01.06.2007 00:00 14,4 C 68 % 1012,4 hPa 0,0 mm 0,0 km/h (0 Bft) N 0 0 min 0 UV-I 0 W/m 0,0 km/h (0 Bft)
01.06.2007 00:10 14,4 C 68 % 1012,3 hPa 0,0 mm 0,0 km/h (0 Bft) N 0 0 min 0 UV-I 0 W/m 0,0 km/h (0 Bft)
01.06.2007 00:20 14,5 C 68 % 1012,3 hPa 0,0 mm 0,0 km/h (0 Bft) O-SO 112 0 min 0 UV-I 0 W/m 1,6 km/h (1 Bft)
01.06.2007 00:30 14,4 C 70 % 1012,3 hPa 0,0 mm 0,0 km/h (0 Bft) N 0 0 min 0 UV-I 0 W/m 0,0 km/h (0 Bft)
01.06.2007 00:40 13,9 C 74 % 1012,3 hPa 0,0 mm 0,0 km/h (0 Bft) N 0 0 min 0 UV-I 0 W/m 0,0 km/h (0 Bft)
01.06.2007 00:50 13,4 C 74 % 1012,2 hPa 0,0 mm 0,0 km/h (0 Bft) N 0 0 min 0 UV-I 0 W/m 0,0 km/h (0 Bft)
01.06.2007 01:00 13,0 C 76 % 1012,2 hPa 0,0 mm 0,0 km/h (0 Bft) N 0 0 min 0 UV-I 0 W/m 0,0 km/h (0 Bft)
01.06.2007 01:10 12,7 C 77 % 1012,2 hPa 0,0 mm 0,0 km/h (0 Bft) N 0 0 min 0 UV-I 0 W/m 0,0 km/h (0 Bft)
01.06.2007 01:20 12,8 C 76 % 1012,2 hPa 0,0 mm 0,0 km/h (0 Bft) N 0 0 min 0 UV-I 0 W/m 0,0 km/h (0 Bft)
01.06.2007 01:30 12,8 C 78 % 1012,2 hPa 0,0 mm 0,0 km/h (0 Bft) N 0 0 min 0 UV-I 0 W/m 0,0 km/h (0 Bft)
01.06.2007 01:40 12,8 C 74 % 1012,2 hPa 0,0 mm 0,0 km/h (0 Bft) O-SO 112 0 min 0 UV-I 0 W/m 1,6 km/h (1 Bft)
01.06.2007 01:50 13,2 C 73 % 1012,2 hPa 0,0 mm 0,0 km/h (0 Bft) N 0 0 min 0 UV-I 0 W/m 0,0 km/h (0 Bft)
01.06.2007 02:00 13,2 C 73 % 1012,3 hPa 0,0 mm 0,0 km/h (0 Bft) N 0 0 min 0 UV-I 0 W/m 0,0 km/h (0 Bft)
01.06.2007 02:10 13,2 C 73 % 1012,2 hPa 0,0 mm 0,0 km/h (0 Bft) N 0 0 min 0 UV-I 0 W/m 0,0 km/h (0 Bft)
01.06.2007 02:20 13,1 C 73 % 1012,3 hPa 0,0 mm 0,0 km/h (0 Bft) N 0 0 min 0 UV-I 0 W/m 0,0 km/h (0 Bft)
01.06.2007 02:30 13,1 C 74 % 1012,3 hPa 0,0 mm 0,0 km/h (0 Bft) N 0 0 min 0 UV-I 0 W/m 0,0 km/h (0 Bft)
01.06.2007 02:40 12,9 C 75 % 1012,3 hPa 0,0 mm 0,0 km/h (0 Bft) N 0 0 min 0 UV-I 0 W/m 0,0 km/h (0 Bft)
01.06.2007 02:50 12,9 C 76 % 1012,2 hPa 0,0 mm 0,0 km/h (0 Bft) N 0 0 min 0 UV-I 0 W/m 0,0 km/h (0 Bft)
01.06.2007 03:00 12,8 C 76 % 1012,2 hPa 0,0 mm 0,0 km/h (0 Bft) N 0 0 min 0 UV-I 0 W/m 0,0 km/h (0 Bft)
01.06.2007 03:10 12,6 C 77 % 1012,2 hPa 0,0 mm 0,0 km/h (0 Bft) N 0 0 min 0 UV-I 0 W/m 0,0 km/h (0 Bft)
01.06.2007 03:20 12,2 C 79 % 1012,0 hPa 0,0 mm 0,0 km/h (0 Bft) N 0 0 min 0 UV-I 0 W/m 0,0 km/h (0 Bft)
01.06.2007 03:30 11,7 C 82 % 1012,0 hPa 0,0 mm 0,0 km/h (0 Bft) N 0 0 min 0 UV-I 0 W/m 0,0 km/h (0 Bft)
01.06.2007 03:40 11,3 C 83 % 1011,9 hPa 0,0 mm 0,0 km/h (0 Bft) N 0 0 min 0 UV-I 0 W/m 0,0 km/h (0 Bft)
01.06.2007 03:50 11,1 C 83 % 1011,9 hPa 0,0 mm 0,0 km/h (0 Bft) N 0 0 min 0 UV-I 0 W/m 0,0 km/h (0 Bft)
01.06.2007 04:00 10,9 C 84 % 1011,9 hPa 0,0 mm 0,0 km/h (0 Bft) N 0 0 min 0 UV-I 0 W/m 0,0 km/h (0 Bft)
01.06.2007 04:10 10,8 C 84 % 1011,8 hPa 0,0 mm 0,0 km/h (0 Bft) N 0 0 min 0 UV-I 0 W/m 0,0 km/h (0 Bft)
01.06.2007 04:20 10,6 C 85 % 1011,9 hPa 0,0 mm 0,0 km/h (0 Bft) N 0 0 min 0 UV-I 0 W/m 0,0 km/h (0 Bft)
01.06.2007 04:30 10,4 C 85 % 1011,9 hPa 0,0 mm 0,0 km/h (0 Bft) N 0 0 min 0 UV-I 0 W/m 0,0 km/h (0 Bft)
01.06.2007 04:40 10,2 C 85 % 1011,8 hPa 0,0 mm 0,0 km/h (0 Bft) N 0 0 min 0 UV-I 0 W/m 0,0 km/h (0 Bft)
01.06.2007 04:50 10,1 C 86 % 1011,8 hPa 0,0 mm 0,0 km/h (0 Bft) N 0 0 min 0 UV-I 0 W/m 0,0 km/h (0 Bft)
01.06.2007 05:00 9,9 C 86 % 1011,8 hPa 0,0 mm 0,0 km/h (0 Bft) N 0 0 min 0 UV-I 0 W/m 0,0 km/h (0 Bft)
01.06.2007 05:10 9,8 C 87 % 1011,9 hPa 0,0 mm 0,0 km/h (0 Bft) N 0 0 min 0 UV-I 0 W/m 0,0 km/h (0 Bft)
01.06.2007 05:20 9,7 C 87 % 1012,1 hPa 0,0 mm 0,0 km/h (0 Bft) N 0 0 min 0 UV-I 5 W/m 0,0 km/h (0 Bft)
01.06.2007 05:30 9,6 C 87 % 1012,0 hPa 0,0 mm 0,0 km/h (0 Bft) N 0 0 min 0 UV-I 9 W/m 0,0 km/h (0 Bft)
01.06.2007 05:40 9,6 C 87 % 1012,2 hPa 0,0 mm 0,0 km/h (0 Bft) N 0 0 min 0 UV-I 14 W/m 0,0 km/h (0 Bft)
01.06.2007 05:50 9,6 C 88 % 1012,3 hPa 0,0 mm 0,0 km/h (0 Bft) N 0 0 min 0 UV-I 19 W/m 0,0 km/h (0 Bft)
01.06.2007 06:00 9,7 C 87 % 1012,2 hPa 0,0 mm 0,0 km/h (0 Bft) N 0 0 min 0 UV-I 23 W/m 0,0 km/h (0 Bft)
01.06.2007 06:10 9,8 C 88 % 1012,3 hPa 0,0 mm 0,0 km/h (0 Bft) N 0 0 min 0 UV-I 28 W/m 0,0 km/h (0 Bft)
01.06.2007 06:20 10,1 C 87 % 1012,3 hPa 0,0 mm 0,0 km/h (0 Bft) N 0 0 min 0 UV-I 35 W/m 0,0 km/h (0 Bft)
01.06.2007 06:30 10,4 C 87 % 1012,4 hPa 0,0 mm 0,0 km/h (0 Bft) N 0 10 min 0 UV-I 107 W/m 0,0 km/h (0 Bft)
01.06.2007 06:40 10,8 C 85 % 1012,5 hPa 0,0 mm 0,0 km/h (0 Bft) N 0 10 min 0 UV-I 130 W/m 0,0 km/h (0 Bft)
01.06.2007 06:50 11,5 C 81 % 1012,5 hPa 0,0 mm 0,0 km/h (0 Bft) N 0 10 min 0 UV-I 146 W/m 0,0 km/h (0 Bft)
01.06.2007 07:00 12,1 C 77 % 1012,5 hPa 0,0 mm 0,0 km/h (0 Bft) N 0 10 min 0 UV-I 160 W/m 0,0 km/h (0 Bft)
01.06.2007 07:10 12,5 C 76 % 1012,6 hPa 0,0 mm 0,0 km/h (0 Bft) N 0 10 min 0 UV-I 179 W/m 0,0 km/h (0 Bft)
01.06.2007 07:20 13,0 C 75 % 1012,7 hPa 0,0 mm 0,0 km/h (0 Bft) N 0 10 min 1 UV-I 220 W/m 0,0 km/h (0 Bft)
01.06.2007 07:30 13,3 C 75 % 1012,7 hPa 0,0 mm 0,0 km/h (0 Bft) N 0 10 min 1 UV-I 250 W/m 0,0 km/h (0 Bft)
01.06.2007 07:40 13,7 C 74 % 1012,8 hPa 0,0 mm 0,0 km/h (0 Bft) N 0 10 min 1 UV-I 278 W/m 0,0 km/h (0 Bft)
01.06.2007 07:50 14,2 C 74 % 1012,9 hPa 0,0 mm 0,0 km/h (0 Bft) SW 225 10 min 1 UV-I 315 W/m 3,2 km/h (1 Bft)
01.06.2007 08:00 14,9 C 72 % 1012,9 hPa 0,0 mm 0,0 km/h (0 Bft) SW 225 10 min 1 UV-I 346 W/m 1,6 km/h (1 Bft)
01.06.2007 08:10 15,4 C 68 % 1012,9 hPa 0,0 mm 0,0 km/h (0 Bft) O 90 10 min 1 UV-I 250 W/m 3,2 km/h (1 Bft)
01.06.2007 08:20 15,7 C 66 % 1012,9 hPa 0,0 mm 0,0 km/h (0 Bft) O 90 10 min 1 UV-I 480 W/m 3,2 km/h (1 Bft)
01.06.2007 08:30 16,4 C 64 % 1013,0 hPa 0,0 mm 0,0 km/h (0 Bft) O 90 10 min 1 UV-I 476 W/m 3,2 km/h (1 Bft)
01.06.2007 08:40 17,1 C 60 % 1013,0 hPa 0,0 mm 0,0 km/h (0 Bft) O 90 10 min 2 UV-I 431 W/m 3,2 km/h (1 Bft)
01.06.2007 08:50 17,7 C 57 % 1013,1 hPa 0,0 mm 1,6 km/h (1 Bft) O-SO 112 10 min 2 UV-I 452 W/m 11,3 km/h (2 Bft)
01.06.2007 09:00 18,0 C 58 % 1013,1 hPa 0,0 mm 3,2 km/h (1 Bft) SO 135 10 min 2 UV-I 482 W/m 11,3 km/h (2 Bft)
01.06.2007 09:10 18,3 C 57 % 1013,1 hPa 0,0 mm 1,6 km/h (1 Bft) O-SO 112 10 min 2 UV-I 487 W/m 4,8 km/h (1 Bft)
01.06.2007 09:20 18,7 C 55 % 1013,1 hPa 0,0 mm 1,6 km/h (1 Bft) O-SO 112 10 min 2 UV-I 515 W/m 6,4 km/h (2 Bft)
01.06.2007 09:30 18,9 C 55 % 1013,1 hPa 0,0 mm 3,2 km/h (1 Bft) O 90 10 min 2 UV-I 540 W/m 8,0 km/h (2 Bft)
01.06.2007 09:40 19,2 C 53 % 1013,2 hPa 0,0 mm 1,6 km/h (1 Bft) O 90 10 min 3 UV-I 566 W/m 8,0 km/h (2 Bft)
01.06.2007 09:50 19,4 C 53 % 1013,2 hPa 0,0 mm 3,2 km/h (1 Bft) O 90 10 min 3 UV-I 594 W/m 8,0 km/h (2 Bft)
01.06.2007 10:00 19,7 C 53 % 1013,2 hPa 0,0 mm 1,6 km/h (1 Bft) O-SO 112 10 min 3 UV-I 629 W/m 6,4 km/h (2 Bft)
01.06.2007 10:10 20,0 C 51 % 1013,3 hPa 0,0 mm 3,2 km/h (1 Bft) O 90 10 min 3 UV-I 645 W/m 9,7 km/h (2 Bft)
01.06.2007 10:20 20,3 C 49 % 1013,3 hPa 0,0 mm 3,2 km/h (1 Bft) O-SO 112 10 min 3 UV-I 626 W/m 6,4 km/h (2 Bft)
01.06.2007 10:30 20,3 C 49 % 1013,3 hPa 0,0 mm 1,6 km/h (1 Bft) O 90 10 min 4 UV-I 703 W/m 9,7 km/h (2 Bft)
01.06.2007 10:40 20,7 C 47 % 1013,4 hPa 0,0 mm 3,2 km/h (1 Bft) O 90 10 min 4 UV-I 724 W/m 9,7 km/h (2 Bft)
01.06.2007 10:50 21,0 C 49 % 1013,5 hPa 0,0 mm 3,2 km/h (1 Bft) O 90 10 min 4 UV-I 726 W/m 8,0 km/h (2 Bft)
01.06.2007 11:00 21,0 C 46 % 1013,5 hPa 0,0 mm 3,2 km/h (1 Bft) O 90 10 min 4 UV-I 652 W/m 8,0 km/h (2 Bft)
01.06.2007 11:10 21,1 C 46 % 1013,6 hPa 0,0 mm 3,2 km/h (1 Bft) O 90 10 min 5 UV-I 791 W/m 9,7 km/h (2 Bft)
01.06.2007 11:20 21,3 C 42 % 1013,7 hPa 0,0 mm 4,8 km/h (1 Bft) O 90 10 min 5 UV-I 733 W/m 11,3 km/h (2 Bft)
01.06.2007 11:30 21,5 C 41 % 1013,8 hPa 0,0 mm 3,2 km/h (1 Bft) O 90 10 min 5 UV-I 726 W/m 11,3 km/h (2 Bft)
01.06.2007 11:40 21,8 C 39 % 1013,8 hPa 0,0 mm 3,2 km/h (1 Bft) O-SO 112 10 min 5 UV-I 831 W/m 9,7 km/h (2 Bft)
01.06.2007 11:50 21,9 C 43 % 1013,9 hPa 0,0 mm 3,2 km/h (1 Bft) O 90 10 min 5 UV-I 838 W/m 9,7 km/h (2 Bft)
01.06.2007 12:00 21,7 C 42 % 1013,8 hPa 0,0 mm 3,2 km/h (1 Bft) O 90 10 min 6 UV-I 914 W/m 9,7 km/h (2 Bft)
01.06.2007 12:10 22,3 C 43 % 1013,9 hPa 0,0 mm 3,2 km/h (1 Bft) O-SO 112 10 min 6 UV-I 926 W/m 8,0 km/h (2 Bft)
01.06.2007 12:20 22,1 C 44 % 1013,9 hPa 0,0 mm 1,6 km/h (1 Bft) NO 45 10 min 5 UV-I 814 W/m 8,0 km/h (2 Bft)
01.06.2007 12:30 22,2 C 44 % 1013,9 hPa 0,0 mm 3,2 km/h (1 Bft) O 90 10 min 6 UV-I 932 W/m 8,0 km/h (2 Bft)
01.06.2007 12:40 22,4 C 45 % 1013,8 hPa 0,0 mm 1,6 km/h (1 Bft) O-NO 67 10 min 6 UV-I 979 W/m 6,4 km/h (2 Bft)
01.06.2007 12:50 22,3 C 43 % 1014,0 hPa 0,0 mm 3,2 km/h (1 Bft) O 90 10 min 6 UV-I 870 W/m 9,7 km/h (2 Bft)
01.06.2007 13:00 22,1 C 44 % 1014,0 hPa 0,0 mm 1,6 km/h (1 Bft) O 90 10 min 6 UV-I 851 W/m 9,7 km/h (2 Bft)
01.06.2007 13:10 21,9 C 45 % 1014,0 hPa 0,0 mm 3,2 km/h (1 Bft) O-NO 67 10 min 6 UV-I 1011 W/m 11,3 km/h (2 Bft)
01.06.2007 13:20 22,6 C 42 % 1014,0 hPa 0,0 mm 3,2 km/h (1 Bft) O 90 10 min 7 UV-I 984 W/m 11,3 km/h (2 Bft)
01.06.2007 13:30 22,6 C 43 % 1014,0 hPa 0,0 mm 1,6 km/h (1 Bft) O 90 10 min 5 UV-I 631 W/m 6,4 km/h (2 Bft)
01.06.2007 13:40 22,6 C 42 % 1014,1 hPa 0,0 mm 3,2 km/h (1 Bft) O 90 10 min 7 UV-I 1039 W/m 11,3 km/h (2 Bft)
01.06.2007 13:50 23,0 C 41 % 1014,1 hPa 0,0 mm 3,2 km/h (1 Bft) O 90 10 min 7 UV-I 1037 W/m 8,0 km/h (2 Bft)
01.06.2007 14:00 23,0 C 42 % 1014,1 hPa 0,0 mm 3,2 km/h (1 Bft) O 90 10 min 6 UV-I 1049 W/m 8,0 km/h (2 Bft)
01.06.2007 14:10 22,7 C 39 % 1014,1 hPa 0,0 mm 3,2 km/h (1 Bft) O-SO 112 10 min 6 UV-I 963 W/m 9,7 km/h (2 Bft)
01.06.2007 14:20 23,1 C 40 % 1014,2 hPa 0,0 mm 1,6 km/h (1 Bft) O-NO 67 10 min 6 UV-I 1055 W/m 6,4 km/h (2 Bft)
01.06.2007 14:30 23,2 C 40 % 1014,2 hPa 0,0 mm 3,2 km/h (1 Bft) O 90 10 min 6 UV-I 986 W/m 6,4 km/h (2 Bft)
01.06.2007 14:40 22,3 C 40 % 1014,2 hPa 0,0 mm 1,6 km/h (1 Bft) O 90 0 min 6 UV-I 369 W/m 8,0 km/h (2 Bft)
01.06.2007 14:50 23,1 C 40 % 1014,2 hPa 0,0 mm 3,2 km/h (1 Bft) O 90 10 min 6 UV-I 1111 W/m 9,7 km/h (2 Bft)
01.06.2007 15:00 22,7 C 41 % 1014,2 hPa 0,0 mm 3,2 km/h (1 Bft) O 90 0 min 3 UV-I 374 W/m 11,3 km/h (2 Bft)
01.06.2007 15:10 22,3 C 44 % 1014,3 hPa 0,0 mm 3,2 km/h (1 Bft) O-NO 67 0 min 3 UV-I 357 W/m 8,0 km/h (2 Bft)
01.06.2007 15:20 22,3 C 44 % 1014,3 hPa 0,0 mm 3,2 km/h (1 Bft) O 90 0 min 3 UV-I 343 W/m 9,7 km/h (2 Bft)
01.06.2007 15:30 22,2 C 44 % 1014,4 hPa 0,0 mm 3,2 km/h (1 Bft) O 90 0 min 3 UV-I 332 W/m 9,7 km/h (2 Bft)
01.06.2007 15:40 22,2 C 45 % 1014,5 hPa 0,0 mm 1,6 km/h (1 Bft) O 90 0 min 3 UV-I 338 W/m 8,0 km/h (2 Bft)
01.06.2007 15:50 22,2 C 46 % 1014,6 hPa 0,0 mm 1,6 km/h (1 Bft) O 90 0 min 3 UV-I 346 W/m 6,4 km/h (2 Bft)
01.06.2007 16:00 22,2 C 45 % 1014,6 hPa 0,0 mm 3,2 km/h (1 Bft) O 90 10 min 3 UV-I 434 W/m 9,7 km/h (2 Bft)
01.06.2007 16:10 22,2 C 46 % 1014,7 hPa 0,0 mm 3,2 km/h (1 Bft) O 90 10 min 4 UV-I 953 W/m 9,7 km/h (2 Bft)
01.06.2007 16:20 22,6 C 46 % 1014,7 hPa 0,0 mm 3,2 km/h (1 Bft) O-NO 67 10 min 3 UV-I 417 W/m 8,0 km/h (2 Bft)
01.06.2007 16:30 22,3 C 45 % 1014,9 hPa 0,0 mm 3,2 km/h (1 Bft) O 90 10 min 3 UV-I 454 W/m 9,7 km/h (2 Bft)
01.06.2007 16:40 22,2 C 47 % 1015,0 hPa 0,0 mm 3,2 km/h (1 Bft) O 90 10 min 2 UV-I 380 W/m 8,0 km/h (2 Bft)
01.06.2007 16:50 21,9 C 48 % 1015,1 hPa 0,0 mm 3,2 km/h (1 Bft) O 90 0 min 2 UV-I 313 W/m 11,3 km/h (2 Bft)
01.06.2007 17:00 21,9 C 48 % 1015,2 hPa 0,0 mm 3,2 km/h (1 Bft) O-NO 67 10 min 3 UV-I 501 W/m 8,0 km/h (2 Bft)
01.06.2007 17:10 22,1 C 48 % 1015,2 hPa 0,0 mm 3,2 km/h (1 Bft) O 90 10 min 3 UV-I 606 W/m 9,7 km/h (2 Bft)
01.06.2007 17:20 22,3 C 47 % 1015,3 hPa 0,0 mm 3,2 km/h (1 Bft) O 90 10 min 2 UV-I 708 W/m 8,0 km/h (2 Bft)
01.06.2007 17:30 22,6 C 45 % 1015,3 hPa 0,0 mm 3,2 km/h (1 Bft) O 90 10 min 2 UV-I 712 W/m 9,7 km/h (2 Bft)
01.06.2007 17:40 22,6 C 45 % 1015,3 hPa 0,0 mm 3,2 km/h (1 Bft) O 90 10 min 2 UV-I 666 W/m 9,7 km/h (2 Bft)
01.06.2007 17:50 22,9 C 46 % 1015,4 hPa 0,0 mm 3,2 km/h (1 Bft) O-NO 67 10 min 2 UV-I 603 W/m 8,0 km/h (2 Bft)
01.06.2007 18:00 22,8 C 45 % 1015,4 hPa 0,0 mm 3,2 km/h (1 Bft) O 90 10 min 2 UV-I 554 W/m 9,7 km/h (2 Bft)
01.06.2007 18:10 22,9 C 43 % 1015,2 hPa 0,0 mm 3,2 km/h (1 Bft) O 90 10 min 2 UV-I 510 W/m 9,7 km/h (2 Bft)
01.06.2007 18:20 22,8 C 44 % 1015,3 hPa 0,0 mm 3,2 km/h (1 Bft) O 90 10 min 1 UV-I 434 W/m 9,7 km/h (2 Bft)
01.06.2007 18:30 22,7 C 45 % 1015,3 hPa 0,0 mm 1,6 km/h (1 Bft) O 90 10 min 1 UV-I 399 W/m 9,7 km/h (2 Bft)
01.06.2007 18:40 22,8 C 44 % 1015,4 hPa 0,0 mm 3,2 km/h (1 Bft) O 90 10 min 1 UV-I 380 W/m 8,0 km/h (2 Bft)
01.06.2007 18:50 22,6 C 45 % 1015,5 hPa 0,0 mm 3,2 km/h (1 Bft) O-NO 67 10 min 1 UV-I 410 W/m 11,3 km/h (2 Bft)
01.06.2007 19:00 22,5 C 46 % 1015,6 hPa 0,0 mm 3,2 km/h (1 Bft) O 90 10 min 1 UV-I 350 W/m 14,5 km/h (3 Bft)
01.06.2007 19:10 22,2 C 46 % 1015,7 hPa 0,0 mm 3,2 km/h (1 Bft) O-NO 67 10 min 1 UV-I 301 W/m 8,0 km/h (2 Bft)
01.06.2007 19:20 22,1 C 47 % 1015,8 hPa 0,0 mm 3,2 km/h (1 Bft) O-NO 67 10 min 1 UV-I 257 W/m 8,0 km/h (2 Bft)
01.06.2007 19:30 21,9 C 48 % 1015,8 hPa 0,0 mm 1,6 km/h (1 Bft) O 90 10 min 1 UV-I 237 W/m 6,4 km/h (2 Bft)
01.06.2007 19:40 21,7 C 47 % 1015,9 hPa 0,0 mm 1,6 km/h (1 Bft) O 90 10 min 1 UV-I 207 W/m 6,4 km/h (2 Bft)
01.06.2007 19:50 21,6 C 46 % 1016,0 hPa 0,0 mm 1,6 km/h (1 Bft) O 90 10 min 0 UV-I 186 W/m 6,4 km/h (2 Bft)
01.06.2007 20:00 21,3 C 47 % 1016,0 hPa 0,0 mm 3,2 km/h (1 Bft) O 90 10 min 0 UV-I 160 W/m 8,0 km/h (2 Bft)
01.06.2007 20:10 21,1 C 48 % 1016,0 hPa 0,0 mm 1,6 km/h (1 Bft) O 90 0 min 0 UV-I 56 W/m 6,4 km/h (2 Bft)
01.06.2007 20:20 20,9 C 49 % 1016,1 hPa 0,0 mm 1,6 km/h (1 Bft) O 90 0 min 0 UV-I 51 W/m 8,0 km/h (2 Bft)
01.06.2007 20:30 20,7 C 51 % 1016,2 hPa 0,0 mm 1,6 km/h (1 Bft) O-NO 67 0 min 0 UV-I 44 W/m 6,4 km/h (2 Bft)
01.06.2007 20:40 20,4 C 52 % 1016,2 hPa 0,0 mm 1,6 km/h (1 Bft) O 90 0 min 0 UV-I 37 W/m 6,4 km/h (2 Bft)
01.06.2007 20:50 20,2 C 54 % 1016,4 hPa 0,0 mm 1,6 km/h (1 Bft) O 90 0 min 0 UV-I 30 W/m 4,8 km/h (1 Bft)
01.06.2007 21:00 19,9 C 55 % 1016,6 hPa 0,0 mm 1,6 km/h (1 Bft) O 90 0 min 0 UV-I 25 W/m 4,8 km/h (1 Bft)
01.06.2007 21:10 19,7 C 55 % 1016,7 hPa 0,0 mm 1,6 km/h (1 Bft) O-NO 67 0 min 0 UV-I 19 W/m 3,2 km/h (1 Bft)
01.06.2007 21:20 19,4 C 57 % 1016,9 hPa 0,0 mm 0,0 km/h (0 Bft) O-NO 67 10 min 0 UV-I 12 W/m 1,6 km/h (1 Bft)
01.06.2007 21:30 19,1 C 58 % 1017,1 hPa 0,0 mm 0,0 km/h (0 Bft) NO 45 0 min 0 UV-I 0 W/m 3,2 km/h (1 Bft)
01.06.2007 21:40 18,7 C 59 % 1017,2 hPa 0,0 mm 0,0 km/h (0 Bft) NO 45 0 min 0 UV-I 0 W/m 1,6 km/h (1 Bft)
01.06.2007 21:50 18,4 C 60 % 1017,4 hPa 0,0 mm 0,0 km/h (0 Bft) NO 45 0 min 0 UV-I 0 W/m 1,6 km/h (1 Bft)
01.06.2007 22:00 18,2 C 61 % 1017,5 hPa 0,0 mm 0,0 km/h (0 Bft) N 0 0 min 0 UV-I 0 W/m 0,0 km/h (0 Bft)
01.06.2007 22:10 17,9 C 63 % 1017,7 hPa 0,0 mm 0,0 km/h (0 Bft) N 0 0 min 0 UV-I 0 W/m 0,0 km/h (0 Bft)
01.06.2007 22:20 17,7 C 63 % 1017,7 hPa 0,0 mm 0,0 km/h (0 Bft) NO 45 0 min 0 UV-I 0 W/m 1,6 km/h (1 Bft)
01.06.2007 22:30 17,6 C 65 % 1017,6 hPa 0,0 mm 0,0 km/h (0 Bft) N 0 0 min 0 UV-I 0 W/m 0,0 km/h (0 Bft)
01.06.2007 22:40 17,3 C 66 % 1017,7 hPa 0,0 mm 0,0 km/h (0 Bft) NO 45 0 min 0 UV-I 0 W/m 1,6 km/h (1 Bft)
01.06.2007 22:50 17,1 C 66 % 1017,7 hPa 0,0 mm 0,0 km/h (0 Bft) N 0 0 min 0 UV-I 0 W/m 0,0 km/h (0 Bft)
01.06.2007 23:00 16,9 C 68 % 1018,0 hPa 0,0 mm 0,0 km/h (0 Bft) N 0 0 min 0 UV-I 0 W/m 0,0 km/h (0 Bft)
01.06.2007 23:10 16,6 C 70 % 1018,0 hPa 0,0 mm 0,0 km/h (0 Bft) N 0 0 min 0 UV-I 0 W/m 0,0 km/h (0 Bft)
01.06.2007 23:20 15,9 C 72 % 1018,1 hPa 0,0 mm 0,0 km/h (0 Bft) N 0 0 min 0 UV-I 0 W/m 0,0 km/h (0 Bft)
01.06.2007 23:30 15,5 C 74 % 1018,0 hPa 0,0 mm 0,0 km/h (0 Bft) N 0 0 min 0 UV-I 0 W/m 0,0 km/h (0 Bft)
01.06.2007 23:40 15,2 C 76 % 1018,2 hPa 0,0 mm 0,0 km/h (0 Bft) N 0 0 min 0 UV-I 0 W/m 0,0 km/h (0 Bft)
01.06.2007 23:50 15,0 C 77 % 1018,3 hPa 0,0 mm 0,0 km/h (0 Bft) N 0 0 min 0 UV-I 0 W/m 0,0 km/h (0 Bft)
_ Min-Zeit 05:40 11:40 04:10 - 00:00 - - - - - 00:00
Minimum _ 9,5 C 39 % 1011,8 hPa - 0,0 km/h (0 Bft) - - - - - 0,0 km/h (0 Bft)
_ Max-Zeit 14:30 05:50 23:50 00:00 11:20 - - 06:30 13:20 14:50 19:00
Maximum _ 23,5 C 88 % 1018,3 hPa 0,0 mm 4,8 km/h
O (1 Bft)
- - 10 min 7 UV-I 1111 W/m 14,5 km/h
N (3 Bft)
Durchschnitt _ 17,7 C 60 % 1014,1 hPa #0,0 mm 1,4 km/h (1 Bft) O - #12:30 h 3 UV-I 476 W/m 4,7 km/h (1 Bft)